DateTimeUTC,F1_A11,F1_S11,BsB_S11,BsG_S11,BsR_S11,BbsB_S11,BbsG_S11,BbsR_S11,BaB_A11,BaG_A11,BaR_A11,Tu_S11,T_S11,Uu_S11,U_S11,P_S11,T1_A11
2021-06-06T03:00:00Z,00000200,20000000,,,,,,,0000.08,0000.51,-000.16,17.7,24.5,08.9,05.9,0674.6,31.0
2021-06-06T03:01:00Z,00000200,20000000,,,,,,,-000.53,-000.47,0000.32,17.7,24.5,08.7,05.7,0674.6,31.0
2021-06-06T03:02:00Z,00000200,20000000,,,,,,,0000.07,-000.08,-000.23,17.7,24.5,08.7,05.7,0674.6,31.0
2021-06-06T03:03:00Z,00000200,60000000,,,,,,,0000.87,0000.47,0000.56,17.7,24.5,08.7,05.7,0674.6,30.9
2021-06-06T03:04:00Z,00000200,40000000,0000.49,0000.72,0000.23,0000.34,0000.13,0000.33,0000.21,0000.63,0000.16,17.8,24.3,08.8,05.9,0675.5,30.9
2021-06-06T03:05:00Z,00000200,00000000,0000.06,0000.62,0000.49,0000.28,0000.22,0000.48,0000.31,0000.34,0000.37,17.8,24.2,08.9,06.0,0675.6,31.0
2021-06-06T03:06:00Z,00000200,00000000,0001.16,0000.55,0000.32,-000.13,0000.13,0000.16,0000.63,0000.40,0000.52,17.8,24.2,09.1,06.1,0675.6,30.9
2021-06-06T03:07:00Z,00000200,00000000,0000.88,0000.83,0000.36,0000.09,0000.26,0000.19,0000.65,0000.44,0000.46,17.8,24.2,09.2,06.2,0675.6,30.9
2021-06-06T03:08:00Z,00000200,00000000,0001.40,0000.86,0000.13,0000.44,0000.14,0000.32,0000.49,0000.93,0000.10,17.8,24.2,09.4,06.4,0675.6,30.9
2021-06-06T03:09:00Z,00000200,00000000,0001.07,0000.84,0000.54,0000.16,0000.04,0000.36,0000.41,0000.07,0000.57,17.8,24.2,09.3,06.3,0675.6,30.9
2021-06-06T03:10:00Z,00000200,00000000,0001.81,0000.97,0000.63,0000.24,0000.15,0000.12,0000.34,0000.15,0000.18,17.8,24.2,09.4,06.3,0675.5,30.9
2021-06-06T03:11:00Z,00000200,00000000,0000.86,0000.49,0000.78,-000.08,0000.28,0000.15,0000.80,0000.55,0000.26,17.8,24.2,09.4,06.4,0675.6,30.9
2021-06-06T03:12:00Z,00000200,00000000,0001.46,0000.89,0000.37,0000.13,0000.48,0000.11,0000.20,0000.64,0000.43,17.8,24.2,09.5,06.4,0675.6,31.0
2021-06-06T03:13:00Z,00000200,00000000,0000.42,0000.83,0000.20,0000.66,0000.19,0000.01,0000.45,0000.36,0000.25,17.8,24.2,09.4,06.4,0675.5,30.9
2021-06-06T03:14:00Z,00000200,00000000,0000.98,0000.65,0000.37,-000.12,0000.43,0000.45,0000.59,0000.38,0000.29,17.8,24.2,09.5,06.4,0675.5,30.9
2021-06-06T03:15:00Z,00000200,00000000,0001.56,0000.78,0000.50,0000.40,0000.03,0000.23,0000.30,0000.53,0000.46,17.8,24.1,09.6,06.5,0675.5,30.9
2021-06-06T03:16:00Z,00000200,00000000,0000.68,0000.90,0000.26,0000.03,0000.23,0000.00,0000.31,0000.23,0000.11,17.8,24.1,09.6,06.5,0675.5,30.9
2021-06-06T03:17:00Z,00000200,00000000,0000.49,0000.66,0000.21,0000.50,0000.07,0000.03,0000.42,0000.59,0000.37,17.8,24.1,09.5,06.4,0675.5,30.9
2021-06-06T03:18:00Z,00000200,00000000,0001.31,0000.28,0000.19,0000.04,-000.02,0000.48,0000.73,0000.09,0000.42,17.8,24.1,09.6,06.5,0675.5,30.9
2021-06-06T03:19:00Z,00000200,00000000,0000.32,0000.24,0000.36,0000.13,0000.17,0000.14,0000.01,0000.21,0000.03,17.8,24.1,09.5,06.4,0675.4,30.9
2021-06-06T03:20:00Z,00000200,00000000,0000.35,0000.20,0000.25,-000.33,0000.16,0000.22,0000.26,0000.13,0000.03,17.8,24.1,09.5,06.4,0675.4,30.9
2021-06-06T03:21:00Z,00000200,00000000,0000.19,0000.41,0000.22,-000.15,-000.01,0000.09,-000.23,-000.00,0000.09,17.8,24.1,09.5,06.4,0675.4,30.9
2021-06-06T03:22:00Z,00000200,00000000,0000.59,0000.34,-000.03,0000.22,0000.34,0000.28,0000.43,0000.15,0000.11,17.8,24.1,09.4,06.4,0675.4,30.9
2021-06-06T03:23:00Z,00000200,00000000,0001.00,0000.58,0000.27,0000.23,0000.17,0000.09,0000.33,0000.46,0000.56,17.8,24.1,09.3,06.3,0675.4,30.9
2021-06-06T03:24:00Z,00000200,00000000,0000.33,0000.20,0000.42,-000.07,0000.06,0000.01,0000.41,0000.39,-000.22,17.7,24.1,09.4,06.4,0675.3,30.9
2021-06-06T03:25:00Z,00000200,00000000,0000.13,0000.48,0000.23,0000.07,0000.31,0000.08,-000.08,-000.01,0000.13,17.7,24.1,09.4,06.4,0675.4,30.9
2021-06-06T03:26:00Z,00000200,00000000,0000.64,0000.43,0000.37,0000.12,0000.08,0000.22,0000.68,0000.36,0000.15,17.7,24.1,09.4,06.4,0675.4,30.9
2021-06-06T03:27:00Z,00000200,00000000,0000.13,0000.36,0000.27,0000.39,0000.10,0000.24,-000.04,0000.22,0000.46,17.7,24.1,09.3,06.3,0675.4,30.9
2021-06-06T03:28:00Z,00000200,00000000,0000.47,0000.68,0000.22,-000.09,-000.03,0000.33,0000.44,0000.16,0000.11,17.7,24.1,09.2,06.2,0675.4,30.9
2021-06-06T03:29:00Z,00000200,00000000,0000.86,0000.75,0000.26,0000.01,0000.08,0000.01,0000.02,0000.26,-000.40,17.7,24.1,09.2,06.3,0675.4,30.9
2021-06-06T03:30:00Z,00000200,00000000,0000.93,0000.51,0000.46,-000.62,0000.40,0000.34,0000.40,0000.20,0000.49,17.7,24.1,09.2,06.2,0675.4,30.9
2021-06-06T03:31:00Z,00000200,00000000,0000.16,0000.63,0000.33,-000.32,0000.07,0000.14,-000.06,0000.04,0000.52,17.7,24.1,09.2,06.3,0675.4,30.9
2021-06-06T03:32:00Z,00000200,00000000,0001.01,0000.57,0000.23,0000.28,0000.37,0000.11,0000.72,0000.46,0000.21,17.7,24.1,09.2,06.2,0675.4,30.9
2021-06-06T03:33:00Z,00000200,00000000,0000.61,0000.70,-000.01,0000.19,0000.33,0000.21,0000.04,-000.22,-000.13,17.7,24.0,09.0,06.1,0675.4,30.9
2021-06-06T03:34:00Z,00000200,00000000,0000.63,0000.63,0000.34,-000.09,0000.30,0000.48,0000.17,0000.19,0000.22,17.7,24.0,09.1,06.1,0675.4,30.9
2021-06-06T03:35:00Z,00000200,00000000,0000.57,0000.39,0000.11,-000.18,0000.06,0000.04,0000.63,0000.51,0000.46,17.7,24.0,09.1,06.2,0675.4,30.9
2021-06-06T03:36:00Z,00000200,00000000,0001.07,0000.67,0000.51,-000.03,0000.15,0000.31,-000.11,0000.43,-000.18,17.7,24.0,09.1,06.1,0675.4,30.9
2021-06-06T03:37:00Z,00000200,00000000,0000.37,0000.47,0000.36,-000.10,0000.19,0000.26,0000.44,0000.04,0000.37,17.7,24.0,09.0,06.1,0675.4,30.9
2021-06-06T03:38:00Z,00000200,00000000,0000.22,0000.47,0000.42,0000.36,0000.12,0000.23,0000.04,0000.38,0000.19,17.7,24.0,09.1,06.2,0675.4,31.0
2021-06-06T03:39:00Z,00000200,00000000,0000.89,0000.68,0000.48,0000.80,0000.48,-000.04,0000.28,0000.59,0000.19,17.7,24.0,09.1,06.1,0675.4,30.9
2021-06-06T03:40:00Z,00000200,00000000,0000.97,0000.84,0000.29,0000.15,-000.04,0000.35,0000.45,-000.19,0000.00,17.7,24.0,09.0,06.1,0675.4,30.9
2021-06-06T03:41:00Z,00000200,00000000,0000.54,0000.41,0000.29,-000.00,0000.12,0000.25,0000.19,-000.21,0000.14,17.7,24.0,08.9,06.0,0675.5,30.9
2021-06-06T03:42:00Z,00000200,00000000,0000.79,0000.77,0000.22,0000.37,-000.03,0000.08,0000.18,0000.75,0000.34,17.7,24.0,08.8,06.0,0675.4,30.9
2021-06-06T03:43:00Z,00000200,00000000,0001.07,0000.67,0000.14,0000.06,0000.32,0000.37,0000.19,0000.20,-000.16,17.7,24.0,08.8,05.9,0675.4,30.9
2021-06-06T03:44:00Z,00000200,00000000,0000.47,0000.69,0000.18,0000.55,0000.23,0000.14,0000.18,0000.08,0000.37,17.7,24.0,08.8,06.0,0675.4,30.9
2021-06-06T03:45:00Z,00000200,00000000,0000.97,0000.45,0000.31,0000.40,0000.14,0000.02,0000.31,0000.23,0000.19,17.6,24.0,08.8,05.9,0675.5,30.9
2021-06-06T03:46:00Z,00000200,00000000,0000.43,0000.68,0000.17,0000.24,-000.08,0000.04,0000.69,0000.39,0000.56,17.7,24.0,08.9,06.0,0675.5,30.9
2021-06-06T03:47:00Z,00000200,00000000,0000.13,0000.76,0000.08,-000.02,-000.00,-000.08,0000.41,0000.18,0000.29,17.7,24.0,08.9,06.0,0675.5,30.9
2021-06-06T03:48:00Z,00000200,00000000,0001.04,0000.74,0000.41,-000.13,0000.04,0000.30,-000.32,0000.17,-000.12,17.6,24.0,08.9,06.0,0675.5,30.9
2021-06-06T03:49:00Z,00000200,00000000,0001.17,0000.55,0000.26,-000.09,0000.04,0000.32,0000.45,0000.24,0000.16,17.6,24.0,08.8,06.0,0675.4,30.9
2021-06-06T03:50:00Z,00000200,00000000,0001.18,0000.74,0000.57,-000.04,0000.26,0000.32,0000.20,0000.16,0000.29,17.6,24.0,08.7,05.9,0675.4,30.9
2021-06-06T03:51:00Z,00000200,00000000,0001.06,0000.44,0000.24,0000.37,0000.11,0000.18,0000.30,0000.71,0000.24,17.6,24.0,08.7,05.9,0675.4,30.9
2021-06-06T03:52:00Z,00000200,00000000,0001.23,0000.67,0000.58,0000.38,0000.21,0000.18,0000.36,-000.09,0000.05,17.6,24.0,08.8,06.0,0675.4,30.9
2021-06-06T03:53:00Z,00000200,00000000,0000.64,0000.51,0000.66,0000.12,0000.24,0000.20,0000.24,0000.44,0000.31,17.6,24.0,08.7,05.9,0675.4,30.9
2021-06-06T03:54:00Z,00000200,00000000,0000.08,0000.45,0000.28,0000.16,0000.03,0000.14,0000.20,0000.02,0000.11,17.6,24.0,08.7,05.9,0675.4,30.9
2021-06-06T03:55:00Z,00000200,00000000,0000.36,0000.68,0000.46,0000.26,0000.24,0000.26,0000.56,0000.49,0000.44,17.6,24.0,08.7,05.9,0675.4,30.9
2021-06-06T03:56:00Z,00000200,00000000,0001.25,0001.08,0000.40,0000.65,0000.03,0000.03,0000.21,0000.63,0000.24,17.6,24.0,08.7,05.9,0675.4,30.9
2021-06-06T03:57:00Z,00000200,40000000,,,,,,,0000.21,0000.25,0000.01,17.6,24.0,08.8,05.9,0675.4,30.9
2021-06-06T03:58:00Z,00000200,60000000,,,,,,,-000.09,-000.60,0000.16,17.4,24.1,09.0,05.9,0674.5,30.9
2021-06-06T03:59:00Z,00000200,20000000,,,,,,,0000.06,0000.04,-000.24,17.4,24.2,09.0,05.9,0674.4,30.9
